Regional Weather Roundup
Issued by NWS

Home | Current Version | Previous Version | Graphics & Text | Print | Product List | Glossary On
Versions: 1 2 3 4 5 6 7 8 9 10 11 12 13 14 15 16 17 18 19 20 21 22 23 24 25 26 27 28 29 30 31 32 33 34 35 36 37 38 39 40 41 42 43 44 45 46 47 48 49 50
000
ASUS43 KFSD 201902
RWRSD

WEATHER ROUNDUP FOR SOUTH DAKOTA
NATIONAL WEATHER SERVICE SIOUX FALLS SD
200 PM CDT MON APR 20 2015

NOTE: "FAIR" INDICATES FEW OR NO CLOUDS BELOW 12,000 FEET WITH NO
SIGNIFICANT WEATHER AND/OR OBSTRUCTIONS TO VISIBILITY.


SDZ001>005-009-010-012>017-202000-
NORTHWEST AND NORTH CENTRAL SOUTH DAKOTA

CITY           SKY/WX    TMP DP  RH WIND       PRES   REMARKS
BUFFALO          N/A     48  20  32 NW25G37   29.81F
FAITH            N/A     52  13  21 NW29G36   29.83F
MOBRIDGE       SUNNY     53   4  13 NW33G45   29.74F
$$

SDZ012>016-024>037-041>051-057-063-072>074-202000-
SOUTHWEST AND SOUTH CENTRAL SOUTH DAKOTA

CITY           SKY/WX    TMP DP  RH WIND       PRES   REMARKS
RAPID CTY ARPT CLOUDY    51  20  29 NW28G33   29.88F
PIERRE         SUNNY     54   4  13 NW30G45   29.79F
CUSTER         PTSUNNY   42  16  34 NW12G24   29.87F
ELLSWORTH AFB  CLOUDY    49  19  30 NW22G32   29.88F
PHILIP         CLOUDY    53  15  22 NW23G32   29.85F
PINE RIDGE     PTSUNNY   51  19  28 NW10G24   29.89F
WINNER         MOCLDY    55  15  20 NW36G45   29.81F
$$

SDZ004>011-016>023-039-040-202000-
NORTHEAST SOUTH DAKOTA

CITY           SKY/WX    TMP DP  RH WIND       PRES   REMARKS
ABERDEEN       PTSUNNY   49  26  41 N23G35    29.71F
WATERTOWN      CLOUDY    39  26  59 NW26G35   29.67R
BROOKINGS      CLOUDY    43  25  49 NW29G39   29.68R
SISSETON         N/A     40  32  73 NW22G37   29.63F
$$

SDZ017-020-022-023-036>040-048>070-202000-
SOUTHEAST SOUTH DAKOTA

CITY           SKY/WX    TMP DP  RH WIND       PRES   REMARKS
SIOUX FALLS    MOSUNNY   51  15  23 NW28G46   29.68S
HURON          SUNNY     52  12  20 NW36G41   29.71F
MITCHELL       SUNNY     56   4  12 NW32G43   29.73F
YANKTON        SUNNY    N/A N/A N/A NW29G43   29.72F
$$

ABBREVIATIONS USED IN REMARKS
   TC - TEMPERATURE IN CELSIUS
  WCI - WIND CHILL INDEX
   HX - HEAT INDEX
  VSB - VISIBILITY




USA.gov is the U.S. government's official web portal to all federal, state and local government web resources and services.